Theta_e
303 306 306 305 305 305 299 299 295 298 298 308 311 313 322 324 328 330 333 329 334 330 329 330 330 330 330 336 344 353 351 353 353 349 352 356 354 358 356 359 358 359 359 359
301 306 306 304 306 306 305 305 302 300 299 306 307 322 321 322 325 329 330 339 339 331 332 329 327 323 329 343 350 349 344 341 340 343 342 336 352 356 357 356 358 359 359 359
297 304 304 299 304 305 303 304 301 297 301 308 309 322 322 324 325 328 333 337 340 342 339 339 344 352 350 340 336 337 336 338 339 340 338 335 337 337 341 344 348 350 355 358
297 300 292 303 309 310 306 307 309 312 317 319 319 325 326 328 329 329 329 326 327 332 341 345 344 350 349 342 339 336 335 335 333 332 333 336 334 332 334 340 341 339 342 340
296 295 301 306 308 307 304 309 316 315 317 319 321 319 323 328 331 328 330 328 329 336 339 345 335 341 346 342 339 337 338 334 336 334 332 332 333 328 327 331 335 337 339 334
298 295 294 304 311 313 310 303 315 315 313 314 314 306 312 325 328 331 328 330 335 336 335 334 334 338 336 338 335 334 335 334 334 332 331 338 338 329 329 334 339 347 350 353
299 297 301 311 313 313 298 303 314 315 313 313 310 310 320 325 325 331 329 331 333 336 336 332 335 331 331 330 338 342 351 350 343 341 343 345 344 344 344 346 349 349 353 357
302 298 298 315 313 306 311 313 314 315 315 313 313 315 315 319 322 323 324 327 326 330 334 334 338 328 329 330 335 332 333 338 346 347 347 344 343 341 341 341 341 339 342 341
306 306 314 314 312 314 315 313 314 314 315 315 314 314 316 315 316 318 318 320 320 319 332 331 335 332 328 332 334 333 329 328 327 344 348 343 343 342 338 339 337 335 336 332
307 309 314 315 315 317 318 317 317 317 315 315 312 314 315 315 316 318 319 319 321 321 322 327 328 328 326 326 333 327 323 325 325 333 345 348 347 344 343 340 336 337 335 332
309 311 314 318 318 318 319 319 319 318 317 315 316 315 315 315 316 318 320 319 320 320 321 321 327 328 327 331 330 327 327 328 332 338 337 335 339 341 340 340 338 336 335 335
307 314 315 314 317 319 318 317 316 315 316 318 317 315 315 315 317 317 318 320 319 318 318 321 322 326 331 338 334 327 326 332 332 331 327 325 326 327 320 320 317 311 310 321
313 316 316 317 319 320 318 318 318 316 316 315 316 316 315 314 315 317 316 316 315 315 315 316 319 321 326 328 335 333 332 330 328 322 321 319 319 316 314 316 314 308 303 304
319 319 316 318 315 319 319 319 319 317 317 317 316 316 315 314 313 315 317 319 319 318 318 318 318 318 320 319 320 328 331 324 329 324 321 317 316 316 320 318 317 318 312 308
319 320 317 317 317 317 318 317 315 314 315 315 316 315 315 316 318 318 319 320 319 318 317 316 316 317 320 317 318 318 318 323 327 322 320 318 318 316 315 315 314 315 316 311
320 320 318 316 316 316 316 315 312 312 315 316 316 315 320 320 319 318 318 317 314 312 314 313 313 315 317 317 315 315 318 319 318 322 318 315 315 315 315 315 316 317 316 318
316 314 315 316 315 314 313 313 313 315 315 317 319 320 320 318 319 315 314 315 313 313 314 313 313 316 315 315 314 315 316 321 321 321 316 315 315 313 314 314 315 315 315 316
319 318 316 315 313 313 313 315 316 319 319 320 320 320 319 316 313 313 313 313 313 313 314 316 316 316 316 313 311 315 318 320 321 320 318 316 316 317 315 315 315 315 315 315
320 317 317 317 315 314 315 315 319 320 322 321 319 319 318 314 314 312 314 312 312 312 314 317 320 318 317 319 314 313 314 315 319 317 317 317 316 316 315 314 315 316 315 316
318 318 317 316 319 317 315 321 322 322 321 320 321 316 312 312 313 313 314 313 313 315 316 316 317 315 317 319 320 318 316 315 316 317 317 318 317 315 316 313 317 317 317 318
316 316 318 317 318 321 321 323 322 321 322 320 314 311 312 313 314 313 313 310 315 313 315 317 316 318 318 320 319 316 314 314 315 315 316 317 318 315 316 316 320 320 318 319
316 317 317 321 321 321 324 324 323 321 319 316 314 312 313 313 313 315 314 312 314 313 315 315 317 319 319 321 320 319 319 317 317 316 314 314 314 315 316 317 317 318 319 319
318 318 320 322 321 322 324 324 324 319 317 316 313 313 314 315 313 313 310 315 314 314 317 315 317 317 317 319 319 318 319 319 319 318 317 317 316 315 316 316 318 319 319 320
319 320 322 324 324 323 318 321 320 319 318 316 316 317 316 315 316 317 318 315 313 313 315 315 316 315 314 320 318 318 318 317 320 319 319 310 318 318 318 318 319 320 320 317
322 323 323 322 321 320 321 320 320 319 318 318 318 319 320 320 317 319 321 321 314 313 318 318 316 315 317 319 318 318 318 318 317 318 318 318 318 318 319 319 319 319 321 320
322 322 322 322 321 321 321 322 318 319 319 319 320 321 322 323 323 321 325 321 321 317 319 321 319 317 317 317 318 318 317 317 318 316 316 317 318 318 318 318 318 319 319 319
322 316 322 320 321 320 319 318 318 318 319 320 320 323 324 325 325 320 319 323 323 318 308 308 306 306 309 316 312 317 318 318 309 317 317 317 316 316 318 318 318 318 318 317
Wind_Speed
8 9 8 9 10 8 5 8 3 10 5 8 9 10 9 8 6 6 6 18 15 17 14 17 13 9 12 5 5 18 15 12 9 10 4 8 11 13 14 11 12 11 11 11
5 8 9 6 9 10 9 8 7 6 7 7 5 9 7 7 8 8 7 10 12 12 12 9 8 8 7 3 6 14 13 12 12 9 9 1 5 3 6 7 7 9 8 11
5 7 9 8 10 7 3 7 5 6 6 7 11 19 13 8 3 14 12 11 3 11 12 11 6 5 5 3 5 10 11 7 6 3 7 7 8 0 7 5 5 4 3 8
4 4 6 11 9 7 4 5 7 9 14 15 12 14 17 14 10 8 11 16 15 13 6 7 8 7 7 6 4 4 2 3 3 1 3 5 7 7 6 6 6 5 3 10
3 2 8 11 3 6 4 7 12 13 14 15 9 12 10 7 6 4 3 9 6 10 11 7 9 10 9 7 4 2 3 4 6 9 9 8 7 9 6 4 3 5 3 15
1 2 4 4 4 7 5 4 7 10 10 11 12 8 4 2 3 4 8 7 5 8 7 15 18 20 11 4 6 6 4 7 6 7 5 7 7 7 5 5 6 6 10 12
3 4 6 4 6 5 2 4 7 9 7 8 6 1 4 2 2 3 6 4 4 3 2 3 7 12 15 21 15 4 3 2 5 6 7 7 7 6 7 6 4 4 6 7
3 3 3 5 4 4 5 6 8 8 9 8 8 8 7 6 5 5 6 7 5 4 2 4 8 8 5 3 8 6 12 12 5 6 5 4 5 3 2 3 4 5 5 5
7 6 3 6 6 6 6 4 6 8 7 7 7 7 8 7 6 6 6 5 5 4 6 5 10 14 14 17 8 8 8 1 9 15 7 6 4 5 3 4 4 5 5 5
3 1 6 6 4 5 9 8 7 7 4 5 5 7 8 8 8 8 7 6 6 6 7 1 7 9 16 13 6 2 6 11 17 15 8 6 5 4 5 5 5 5 5 6
1 1 2 2 8 7 7 8 8 7 4 5 7 6 6 7 8 7 7 7 7 7 6 5 2 10 11 8 8 12 14 14 15 13 7 6 6 6 7 7 8 6 8 7
4 2 5 4 5 7 7 5 4 4 6 6 6 5 5 5 4 5 7 7 8 8 8 8 9 11 7 12 14 12 12 11 7 7 5 5 5 6 9 13 13 11 12 8
2 3 6 5 7 7 4 3 7 7 5 6 6 3 4 3 4 4 4 5 6 7 6 6 6 8 11 13 9 15 16 15 10 8 5 5 4 5 5 7 7 6 8 8
5 6 6 3 1 7 9 7 6 4 5 6 6 5 5 4 3 5 6 6 7 8 10 11 8 5 4 8 13 16 12 15 10 7 6 5 5 5 4 3 3 5 5 8
4 2 5 7 7 8 7 6 7 7 6 7 6 6 6 7 8 7 7 8 9 11 11 12 15 15 2 1 4 9 10 13 11 7 7 6 4 4 3 4 4 5 4 2
3 5 7 6 3 6 6 9 7 6 6 5 6 6 7 6 5 6 6 7 8 10 12 11 13 16 8 8 4 6 3 14 14 15 3 4 3 4 3 3 4 5 5 5
4 4 7 8 9 8 7 5 4 4 5 6 7 6 5 5 4 6 7 6 6 10 11 11 13 9 8 8 9 5 4 4 7 13 6 5 5 4 4 4 5 5 5 5
9 9 8 8 7 6 4 4 3 7 4 3 5 5 4 5 5 6 6 7 7 9 9 9 6 6 11 7 5 3 2 2 1 8 5 3 3 4 4 4 6 6 5 4
11 9 8 7 5 2 2 3 4 2 4 5 5 5 5 5 5 5 7 6 7 8 11 5 9 9 11 10 6 4 3 7 11 5 4 5 4 4 5 5 6 6 5 6
10 9 7 4 7 5 2 4 5 5 5 5 5 5 4 4 6 6 6 5 5 5 6 6 6 7 8 6 6 3 3 5 8 8 6 7 6 5 5 7 7 5 4 4
9 7 8 7 4 4 4 3 5 5 6 5 5 3 4 6 7 2 5 3 5 8 5 6 6 8 6 9 9 6 6 7 9 11 7 4 3 4 4 6 6 3 4 4
7 7 7 5 4 3 2 2 4 7 5 5 3 3 5 3 4 6 4 2 3 8 3 3 6 14 13 17 8 8 7 8 9 8 5 3 4 4 4 4 5 5 5 4
6 6 2 4 1 2 5 4 7 6 3 6 3 3 5 4 2 4 2 2 1 4 4 4 8 14 19 10 9 9 9 10 8 4 5 4 4 4 4 4 5 5 5 3
5 3 1 2 2 6 6 6 6 5 6 6 5 6 5 2 2 2 2 4 5 5 4 5 7 12 11 7 8 9 9 10 9 7 3 4 5 6 6 6 5 3 3 3
4 3 1 0 7 5 6 6 5 5 7 6 6 7 7 4 4 3 2 2 6 5 5 7 9 11 5 4 6 7 7 8 9 9 8 8 7 7 8 7 6 6 4 3
3 2 2 5 5 4 4 4 3 2 4 3 1 1 2 2 2 3 5 4 2 4 4 4 5 4 3 4 5 4 5 5 5 5 6 6 8 9 8 7 7 7 6 5
4 4 4 3 4 4 4 3 3 3 3 3 3 4 4 4 4 4 3 5 4 4 2 1 3 4 3 1 4 4 3 2 3 3 3 3 4 4 4 5 6 6 6 7
Wind_Direction
315 326 322 309 305 306 308 261 269 286 302 225 220 189 208 171 146 110 116 142 163 172 201 205 229 231 231 214 255 190 192 165 135 84 85 201 185 195 200 187 196 193 187 191
312 309 325 319 321 315 276 265 251 251 292 313 281 152 152 174 150 158 135 108 127 170 188 210 224 232 257 299 181 138 136 138 135 126 74 233 360 89 181 188 177 192 193 200
290 308 324 325 266 275 46 44 45 11 265 30 31 64 32 317 140 42 46 28 35 165 164 188 194 133 137 133 82 130 141 157 115 128 172 180 115 304 127 141 123 94 255 221
243 333 285 246 270 255 130 24 9 54 40 28 74 74 61 53 41 57 56 6 319 350 291 162 146 135 125 111 84 76 117 129 98 147 172 158 150 182 195 181 164 179 164 4
137 236 274 295 311 39 66 54 39 48 36 29 31 65 64 40 73 86 76 241 351 310 323 201 152 152 151 137 154 244 227 200 181 186 195 184 193 208 221 187 172 223 164 187
314 212 274 270 96 56 44 59 25 59 42 34 27 46 322 124 148 142 185 214 236 53 41 56 50 348 20 80 170 225 207 242 191 185 196 177 188 196 204 208 206 186 211 230
249 232 256 349 28 31 74 201 50 57 57 42 41 129 212 307 346 211 191 228 27 156 172 258 113 12 343 358 318 286 234 200 228 216 196 208 207 186 193 190 199 217 230 246
180 218 282 345 19 70 186 63 64 46 44 31 14 4 0 13 308 308 298 307 348 44 194 225 120 165 193 102 271 16 14 354 304 247 218 201 199 232 203 204 232 239 236 265
145 187 126 45 62 51 94 113 84 76 44 35 9 350 349 341 353 344 356 1 13 48 195 237 190 192 183 219 188 162 136 228 313 283 252 236 195 218 233 224 234 250 235 232
78 154 94 42 357 35 58 76 66 62 47 27 17 14 5 346 337 338 343 355 26 46 3 262 217 195 203 208 194 205 214 212 232 253 237 219 227 203 220 228 235 234 235 234
311 33 42 47 88 70 47 40 32 21 26 37 49 16 349 332 321 335 357 354 1 7 7 356 262 232 225 206 181 201 224 229 228 235 233 231 228 221 226 233 214 219 232 214
220 80 113 125 104 76 62 40 352 1 31 26 33 342 302 302 324 360 1 5 12 4 2 340 332 329 256 215 191 207 207 229 225 231 232 225 220 255 249 237 253 247 244 217
360 112 127 120 121 97 74 356 48 22 8 357 319 324 26 26 36 21 0 341 334 320 309 308 316 319 326 325 264 206 205 207 204 199 209 216 209 205 250 285 277 262 265 270
55 44 358 314 224 82 72 47 26 10 354 11 18 15 19 20 343 3 11 12 352 341 330 323 311 278 9 355 4 321 248 215 200 191 187 205 217 221 203 196 272 294 287 231
31 293 224 112 79 67 56 42 22 29 14 5 358 1 355 10 30 15 356 345 337 327 321 327 320 310 275 351 307 291 312 318 260 181 161 194 207 202 209 228 253 268 282 279
307 265 76 69 75 107 72 54 46 5 5 346 327 338 45 44 18 4 335 335 336 320 312 305 304 302 315 295 244 234 275 301 343 295 136 180 194 217 242 250 252 255 266 263
110 79 64 58 57 61 61 52 31 346 324 4 45 28 32 35 1 340 325 327 325 307 300 299 295 296 309 294 296 207 179 109 26 311 276 227 219 213 222 235 250 254 254 251
111 103 91 82 78 60 26 1 3 64 67 46 22 342 8 24 321 333 322 305 303 299 299 295 295 318 299 288 291 305 332 62 168 266 255 235 238 230 233 236 247 248 265 266
110 114 96 83 79 31 15 43 87 74 44 47 15 9 31 8 346 314 289 315 322 319 319 311 326 333 307 308 277 307 332 316 287 261 263 264 271 256 246 244 255 256 257 275
98 98 99 86 75 74 38 64 46 60 83 61 40 41 17 343 301 291 321 346 336 295 314 342 318 292 304 321 343 283 266 276 287 280 271 259 241 235 238 238 232 239 260 269
105 100 88 82 71 59 51 337 87 67 76 66 79 31 311 282 276 300 19 360 318 329 351 333 336 346 328 324 312 278 260 252 244 254 251 227 253 264 270 253 255 255 269 262
90 86 80 80 66 16 50 55 108 93 92 96 85 308 291 280 330 64 81 32 319 344 348 355 345 351 353 351 334 325 293 274 269 267 254 247 256 262 269 287 276 260 258 271
87 92 94 101 41 36 50 78 108 126 130 125 171 247 277 249 255 78 353 295 311 318 325 305 313 335 344 346 352 346 343 334 346 280 290 302 286 273 278 275 291 275 262 295
121 138 110 321 159 101 100 111 130 163 145 177 209 228 255 352 124 110 196 204 228 251 262 283 310 321 337 343 356 5 7 5 11 12 341 280 272 259 255 250 256 293 325 32
143 136 277 333 125 132 138 160 170 189 176 210 213 231 227 208 155 227 227 252 226 250 266 285 296 307 320 327 345 12 20 21 23 26 22 24 25 26 31 41 42 32 29 26
138 207 145 106 132 136 180 174 132 162 152 128 93 298 282 243 243 230 188 199 193 250 263 276 294 311 311 334 328 352 5 360 23 23 26 30 35 37 42 33 33 27 31 29
123 98 110 103 118 132 118 148 152 153 158 179 204 244 261 262 248 245 227 161 199 226 99 76 51 24 43 359 2 338 316 313 333 336 3 32 39 40 44 30 28 25 25 29